QPF
0.07 0.08 0.09 0.10 0.11 0.11 0.10 0.08 0.08 0.08 0.08 0.07 0.06 0.06 0.07 0.07 0.07 0.08 0.08 0.08 0.07 0.07 0.07 0.06 0.06 0.06 0.06 0.06 0.06 0.07 0.08 0.08 0.07 0.05 0.06 0.06 0.07 0.06 0.07 0.07 0.07 0.10 0.09
0.06 0.06 0.06 0.07 0.07 0.06 0.06 0.07 0.08 0.09 0.10 0.08 0.06 0.06 0.07 0.06 0.06 0.07 0.07 0.08 0.09 0.09 0.08 0.09 0.08 0.08 0.08 0.06 0.06 0.06 0.07 0.08 0.08 0.06 0.06 0.05 0.07 0.08 0.09 0.08 0.06 0.07 0.07
0.05 0.05 0.05 0.06 0.06 0.06 0.06 0.07 0.08 0.08 0.08 0.09 0.08 0.07 0.07 0.08 0.08 0.08 0.06 0.06 0.07 0.08 0.08 0.08 0.07 0.09 0.08 0.06 0.06 0.06 0.06 0.07 0.08 0.07 0.05 0.05 0.04 0.06 0.10 0.11 0.11 0.10 0.07
0.04 0.04 0.05 0.06 0.06 0.07 0.07 0.06 0.05 0.06 0.06 0.06 0.06 0.06 0.07 0.07 0.07 0.09 0.09 0.08 0.08 0.07 0.07 0.06 0.06 0.06 0.06 0.06 0.05 0.06 0.07 0.07 0.08 0.08 0.08 0.06 0.05 0.06 0.08 0.10 0.13 0.13 0.09
0.03 0.03 0.03 0.04 0.05 0.05 0.06 0.05 0.04 0.05 0.05 0.05 0.05 0.05 0.06 0.06 0.07 0.07 0.07 0.07 0.07 0.07 0.06 0.05 0.05 0.06 0.06 0.05 0.04 0.05 0.09 0.09 0.08 0.08 0.08 0.07 0.06 0.07 0.07 0.07 0.08 0.11 0.11
0.04 0.03 0.03 0.04 0.05 0.05 0.04 0.05 0.05 0.05 0.05 0.04 0.04 0.04 0.05 0.04 0.04 0.04 0.05 0.05 0.05 0.06 0.06 0.06 0.05 0.05 0.04 0.03 0.03 0.03 0.05 0.07 0.07 0.07 0.07 0.06 0.06 0.06 0.05 0.05 0.06 0.07 0.07
0.03 0.03 0.03 0.03 0.04 0.05 0.04 0.04 0.04 0.04 0.04 0.03 0.03 0.03 0.02 0.02 0.02 0.02 0.03 0.04 0.05 0.06 0.07 0.07 0.05 0.05 0.05 0.04 0.03 0.03 0.03 0.03 0.05 0.06 0.07 0.05 0.04 0.04 0.05 0.05 0.06 0.07 0.06
0.03 0.03 0.02 0.02 0.02 0.03 0.05 0.05 0.04 0.04 0.03 0.03 0.03 0.02 0.02 0.02 0.01 0.01 0.01 0.02 0.04 0.05 0.05 0.05 0.05 0.06 0.04 0.04 0.04 0.04 0.03 0.03 0.03 0.03 0.03 0.04 0.03 0.04 0.04 0.04 0.05 0.05 0.06
0.03 0.02 0.02 0.02 0.03 0.03 0.04 0.04 0.03 0.03 0.03 0.03 0.02 0.03 0.03 0.03 0.02 0.01 0.01 0.02 0.03 0.04 0.05 0.04 0.04 0.04 0.03 0.02 0.02 0.03 0.03 0.04 0.03 0.02 0.02 0.02 0.02 0.02 0.03 0.03 0.04 0.04 0.04
0.03 0.02 0.02 0.03 0.04 0.03 0.02 0.03 0.02 0.03 0.03 0.03 0.03 0.03 0.04 0.04 0.03 0.02 0.02 0.02 0.03 0.04 0.05 0.04 0.03 0.02 0.01 0.01 0.01 0.03 0.03 0.03 0.03 0.03 0.02 0.01 0.01 0.01 0.01 0.01 0.03 0.04 0.04
0.04 0.03 0.03 0.03 0.03 0.03 0.03 0.03 0.03 0.03 0.04 0.05 0.06 0.06 0.07 0.06 0.04 0.03 0.02 0.02 0.03 0.04 0.04 0.04 0.03 0.02 0.01 0.01 0.01 0.02 0.02 0.02 0.03 0.03 0.04 0.03 0.03 0.03 0.02 0.02 0.02 0.04 0.04
0.04 0.04 0.03 0.03 0.03 0.02 0.03 0.03 0.03 0.04 0.05 0.06 0.07 0.07 0.07 0.06 0.06 0.05 0.03 0.02 0.02 0.03 0.04 0.04 0.03 0.02 0.01 0.01 0.01 0.01 0.02 0.02 0.03 0.03 0.03 0.04 0.03 0.03 0.03 0.03 0.04 0.05 0.05
0.05 0.03 0.03 0.03 0.02 0.02 0.03 0.04 0.05 0.05 0.05 0.05 0.05 0.05 0.05 0.05 0.06 0.05 0.04 0.03 0.02 0.02 0.02 0.02 0.02 0.01 0.01 0.01 0.02 0.02 0.02 0.02 0.03 0.03 0.03 0.03 0.03 0.03 0.04 0.04 0.04 0.05 0.05
0.05 0.04 0.03 0.02 0.02 0.03 0.04 0.05 0.05 0.06 0.05 0.04 0.04 0.04 0.04 0.04 0.04 0.04 0.04 0.03 0.03 0.02 0.02 0.02 0.02 0.02 0.02 0.02 0.02 0.02 0.02 0.03 0.03 0.03 0.03 0.04 0.04 0.04 0.04 0.04 0.04 0.05 0.05
0.08 0.08 0.07 0.05 0.05 0.05 0.06 0.06 0.06 0.05 0.05 0.04 0.04 0.04 0.04 0.03 0.03 0.03 0.02 0.02 0.02 0.02 0.02 0.02 0.03 0.03 0.03 0.02 0.02 0.02 0.03 0.03 0.02 0.02 0.03 0.04 0.04 0.04 0.04 0.05 0.06 0.06 0.05
0.11 0.12 0.11 0.10 0.08 0.08 0.08 0.07 0.07 0.07 0.06 0.05 0.04 0.03 0.04 0.05 0.04 0.03 0.02 0.01 0.02 0.02 0.02 0.02 0.03 0.03 0.03 0.03 0.03 0.02 0.02 0.03 0.03 0.03 0.03 0.04 0.04 0.04 0.04 0.05 0.05 0.06 0.05
0.08 0.09 0.08 0.07 0.07 0.09 0.09 0.08 0.06 0.05 0.05 0.05 0.03 0.03 0.03 0.04 0.04 0.04 0.03 0.02 0.02 0.02 0.02 0.01 0.02 0.03 0.03 0.02 0.03 0.03 0.03 0.04 0.04 0.04 0.04 0.04 0.04 0.04 0.05 0.05 0.04 0.04 0.04
0.06 0.06 0.06 0.06 0.06 0.05 0.06 0.05 0.05 0.05 0.05 0.05 0.05 0.05 0.04 0.03 0.03 0.03 0.04 0.03 0.02 0.02 0.01 0.02 0.02 0.03 0.03 0.03 0.03 0.03 0.04 0.05 0.05 0.04 0.04 0.04 0.05 0.05 0.05 0.05 0.05 0.04 0.05
0.04 0.04 0.04 0.04 0.04 0.04 0.04 0.04 0.04 0.04 0.04 0.05 0.05 0.06 0.06 0.04 0.03 0.03 0.03 0.03 0.02 0.02 0.02 0.02 0.02 0.03 0.03 0.03 0.03 0.04 0.04 0.04 0.04 0.05 0.05 0.05 0.06 0.06 0.05 0.05 0.05 0.06 0.05
0.03 0.02 0.02 0.02 0.03 0.03 0.03 0.04 0.04 0.04 0.04 0.04 0.05 0.06 0.06 0.06 0.05 0.05 0.04 0.04 0.03 0.03 0.03 0.03 0.03 0.03 0.03 0.03 0.04 0.06 0.05 0.04 0.04 0.05 0.06 0.06 0.06 0.06 0.06 0.05 0.06 0.06 0.06
0.01 0.01 0.01 0.01 0.01 0.01 0.02 0.02 0.03 0.03 0.04 0.04 0.04 0.04 0.04 0.04 0.05 0.05 0.05 0.04 0.04 0.03 0.03 0.03 0.03 0.04 0.05 0.05 0.04 0.04 0.04 0.03 0.04 0.04 0.06 0.06 0.06 0.06 0.07 0.07 0.06 0.05 0.06
0.01 0.01 0.01 0.01 0.01 0.02 0.02 0.01 0.01 0.02 0.02 0.03 0.03 0.03 0.03 0.03 0.04 0.03 0.04 0.04 0.03 0.03 0.02 0.02 0.03 0.04 0.05 0.05 0.04 0.04 0.04 0.04 0.03 0.03 0.04 0.05 0.06 0.06 0.06 0.07 0.06 0.06 0.06
0.01 0.02 0.02 0.01 0.01 0.01 0.01 0.01 0.02 0.02 0.02 0.03 0.03 0.03 0.03 0.03 0.02 0.03 0.03 0.03 0.03 0.03 0.02 0.03 0.03 0.02 0.03 0.03 0.03 0.03 0.04 0.05 0.03 0.03 0.03 0.04 0.04 0.05 0.05 0.06 0.06 0.06 0.05
0.01 0.02 0.03 0.02 0.02 0.02 0.02 0.02 0.02 0.02 0.02 0.02 0.02 0.02 0.02 0.01 0.01 0.02 0.02 0.02 0.02 0.02 0.02 0.03 0.03 0.03 0.03 0.03 0.04 0.04 0.05 0.05 0.04 0.02 0.03 0.04 0.06 0.06 0.06 0.06 0.07 0.06 0.05
0.02 0.02 0.03 0.03 0.03 0.02 0.02 0.02 0.02 0.02 0.02 0.03 0.03 0.03 0.01 0.01 0.01 0.02 0.02 0.02 0.02 0.03 0.03 0.03 0.03 0.02 0.02 0.02 0.02 0.03 0.04 0.05 0.04 0.03 0.03 0.03 0.06 0.08 0.08 0.07 0.06 0.06 0.06
0.04 0.03 0.03 0.03 0.02 0.02 0.02 0.01 0.02 0.02 0.02 0.02 0.02 0.02 0.02 0.02 0.02 0.02 0.03 0.04 0.04 0.04 0.03 0.03 0.03 0.02 0.02 0.01 0.01 0.02 0.02 0.02 0.04 0.04 0.04 0.04 0.05 0.08 0.09 0.08 0.06 0.06 0.06
MSLP
1009.26 1010.15 1010.94 1011.62 1012.21 1012.72 1013.15 1013.54 1013.87 1014.15 1014.40 1014.59 1014.74 1014.84 1014.90 1014.91 1014.87 1014.81 1014.74 1014.65 1014.57 1014.50 1014.45 1014.43 1014.43 1014.47 1014.52 1014.60 1014.68 1014.75 1014.80 1014.83 1014.81 1014.75 1014.67 1014.56 1014.46 1014.40 1014.40 1014.48 1014.66 1014.95 1015.33
1009.07 1009.95 1010.73 1011.41 1012.01 1012.54 1013.00 1013.41 1013.76 1014.06 1014.32 1014.52 1014.67 1014.77 1014.82 1014.83 1014.81 1014.77 1014.70 1014.61 1014.52 1014.43 1014.34 1014.27 1014.22 1014.19 1014.19 1014.23 1014.29 1014.38 1014.46 1014.53 1014.58 1014.59 1014.57 1014.51 1014.45 1014.39 1014.38 1014.44 1014.58 1014.82 1015.16
1008.97 1009.84 1010.62 1011.30 1011.90 1012.44 1012.91 1013.33 1013.70 1014.01 1014.27 1014.46 1014.61 1014.70 1014.75 1014.76 1014.74 1014.70 1014.63 1014.55 1014.45 1014.34 1014.22 1014.10 1014.00 1013.92 1013.88 1013.88 1013.93 1014.02 1014.13 1014.25 1014.36 1014.43 1014.47 1014.47 1014.44 1014.41 1014.40 1014.44 1014.56 1014.76 1015.05
1008.95 1009.82 1010.59 1011.27 1011.87 1012.41 1012.89 1013.31 1013.68 1013.99 1014.24 1014.42 1014.55 1014.62 1014.65 1014.65 1014.62 1014.57 1014.50 1014.41 1014.30 1014.17 1014.03 1013.88 1013.74 1013.63 1013.56 1013.54 1013.58 1013.67 1013.80 1013.95 1014.10 1014.23 1014.33 1014.37 1014.39 1014.39 1014.39 1014.43 1014.52 1014.69 1014.94
1009.00 1009.87 1010.64 1011.31 1011.90 1012.44 1012.91 1013.33 1013.69 1013.98 1014.21 1014.37 1014.47 1014.51 1014.52 1014.49 1014.43 1014.37 1014.28 1014.18 1014.06 1013.92 1013.77 1013.61 1013.45 1013.32 1013.23 1013.20 1013.23 1013.32 1013.46 1013.63 1013.81 1013.97 1014.10 1014.19 1014.24 1014.26 1014.28 1014.33 1014.42 1014.57 1014.78
1009.07 1009.94 1010.70 1011.37 1011.95 1012.47 1012.93 1013.33 1013.67 1013.94 1014.15 1014.28 1014.35 1014.37 1014.34 1014.28 1014.20 1014.11 1014.01 1013.89 1013.77 1013.62 1013.47 1013.30 1013.15 1013.01 1012.91 1012.87 1012.89 1012.97 1013.11 1013.28 1013.46 1013.63 1013.78 1013.88 1013.95 1014.00 1014.04 1014.10 1014.19 1014.33 1014.52
1009.13 1010.00 1010.75 1011.40 1011.96 1012.46 1012.90 1013.28 1013.60 1013.85 1014.04 1014.15 1014.20 1014.18 1014.13 1014.05 1013.95 1013.84 1013.72 1013.60 1013.47 1013.33 1013.18 1013.02 1012.87 1012.74 1012.64 1012.59 1012.60 1012.66 1012.77 1012.92 1013.07 1013.23 1013.36 1013.47 1013.55 1013.61 1013.67 1013.74 1013.84 1013.98 1014.16
1009.16 1010.01 1010.74 1011.37 1011.91 1012.38 1012.80 1013.16 1013.46 1013.70 1013.87 1013.98 1014.02 1014.00 1013.94 1013.85 1013.74 1013.62 1013.50 1013.38 1013.25 1013.12 1012.98 1012.83 1012.69 1012.56 1012.45 1012.39 1012.37 1012.39 1012.46 1012.56 1012.67 1012.78 1012.89 1012.98 1013.05 1013.12 1013.19 1013.28 1013.40 1013.54 1013.71
1009.14 1009.96 1010.67 1011.27 1011.79 1012.24 1012.64 1012.99 1013.28 1013.52 1013.70 1013.81 1013.86 1013.86 1013.81 1013.73 1013.63 1013.53 1013.41 1013.30 1013.17 1013.05 1012.91 1012.76 1012.62 1012.48 1012.36 1012.27 1012.21 1012.18 1012.19 1012.22 1012.27 1012.32 1012.38 1012.44 1012.49 1012.56 1012.65 1012.76 1012.90 1013.06 1013.24
1009.09 1009.89 1010.57 1011.15 1011.65 1012.09 1012.47 1012.81 1013.11 1013.36 1013.55 1013.69 1013.78 1013.81 1013.80 1013.75 1013.68 1013.59 1013.49 1013.38 1013.26 1013.13 1012.99 1012.83 1012.67 1012.51 1012.35 1012.22 1012.10 1012.01 1011.94 1011.90 1011.87 1011.86 1011.87 1011.88 1011.92 1011.99 1012.08 1012.22 1012.38 1012.57 1012.77
1009.05 1009.82 1010.48 1011.05 1011.54 1011.97 1012.35 1012.70 1013.01 1013.28 1013.50 1013.68 1013.81 1013.89 1013.93 1013.92 1013.88 1013.82 1013.74 1013.63 1013.50 1013.36 1013.19 1013.00 1012.81 1012.60 1012.40 1012.20 1012.02 1011.86 1011.71 1011.59 1011.49 1011.41 1011.35 1011.33 1011.35 1011.41 1011.52 1011.68 1011.87 1012.10 1012.33
1009.06 1009.81 1010.46 1011.02 1011.50 1011.94 1012.33 1012.69 1013.02 1013.32 1013.58 1013.80 1013.98 1014.11 1014.19 1014.23 1014.23 1014.18 1014.10 1013.99 1013.84 1013.66 1013.46 1013.23 1012.98 1012.72 1012.45 1012.19 1011.94 1011.70 1011.47 1011.27 1011.10 1010.95 1010.85 1010.79 1010.78 1010.83 1010.95 1011.13 1011.36 1011.62 1011.89
1009.15 1009.88 1010.52 1011.08 1011.58 1012.02 1012.43 1012.81 1013.16 1013.49 1013.78 1014.04 1014.26 1014.43 1014.55 1014.62 1014.64 1014.61 1014.52 1014.39 1014.21 1013.99 1013.73 1013.45 1013.14 1012.82 1012.49 1012.16 1011.84 1011.53 1011.24 1010.97 1010.72 1010.51 1010.35 1010.24 1010.21 1010.25 1010.37 1010.56 1010.81 1011.11 1011.42
1009.32 1010.04 1010.67 1011.24 1011.74 1012.20 1012.63 1013.02 1013.39 1013.74 1014.06 1014.35 1014.59 1014.79 1014.94 1015.03 1015.05 1015.02 1014.92 1014.76 1014.54 1014.28 1013.97 1013.63 1013.27 1012.90 1012.52 1012.13 1011.76 1011.39 1011.03 1010.70 1010.39 1010.11 1009.88 1009.72 1009.64 1009.64 1009.74 1009.93 1010.20 1010.52 1010.86
1009.54 1010.24 1010.86 1011.43 1011.95 1012.42 1012.86 1013.26 1013.64 1014.00 1014.33 1014.63 1014.89 1015.11 1015.26 1015.36 1015.38 1015.34 1015.22 1015.04 1014.79 1014.50 1014.16 1013.78 1013.39 1012.99 1012.57 1012.16 1011.75 1011.34 1010.93 1010.53 1010.16 1009.81 1009.50 1009.26 1009.10 1009.04 1009.08 1009.23 1009.48 1009.80 1010.18
1009.75 1010.42 1011.03 1011.60 1012.12 1012.59 1013.03 1013.44 1013.83 1014.19 1014.53 1014.83 1015.09 1015.31 1015.46 1015.56 1015.58 1015.53 1015.40 1015.21 1014.95 1014.65 1014.30 1013.93 1013.54 1013.14 1012.73 1012.31 1011.89 1011.46 1011.02 1010.56 1010.11 1009.67 1009.27 1008.92 1008.65 1008.47 1008.42 1008.49 1008.68 1008.97 1009.33
1009.91 1010.54 1011.13 1011.68 1012.18 1012.66 1013.09 1013.50 1013.89 1014.24 1014.58 1014.88 1015.14 1015.35 1015.51 1015.61 1015.63 1015.58 1015.47 1015.28 1015.05 1014.76 1014.45 1014.11 1013.77 1013.41 1013.04 1012.66 1012.25 1011.82 1011.35 1010.85 1010.32 1009.78 1009.25 1008.75 1008.33 1008.01 1007.81 1007.75 1007.83 1008.04 1008.37
1009.99 1010.57 1011.12 1011.64 1012.13 1012.59 1013.02 1013.42 1013.80 1014.16 1014.49 1014.79 1015.05 1015.26 1015.43 1015.53 1015.57 1015.54 1015.45 1015.30 1015.11 1014.88 1014.63 1014.37 1014.10 1013.83 1013.54 1013.22 1012.86 1012.44 1011.97 1011.42 1010.81 1010.16 1009.48 1008.82 1008.21 1007.70 1007.31 1007.08 1007.01 1007.10 1007.35
1010.02 1010.54 1011.05 1011.53 1012.00 1012.43 1012.85 1013.24 1013.62 1013.97 1014.30 1014.60 1014.87 1015.09 1015.27 1015.39 1015.45 1015.45 1015.40 1015.30 1015.18 1015.03 1014.87 1014.71 1014.55 1014.38 1014.19 1013.96 1013.66 1013.29 1012.81 1012.23 1011.55 1010.79 1009.96 1009.12 1008.31 1007.58 1006.98 1006.54 1006.29 1006.22 1006.34
1010.04 1010.51 1010.97 1011.42 1011.85 1012.27 1012.67 1013.05 1013.42 1013.78 1014.11 1014.42 1014.69 1014.93 1015.12 1015.26 1015.34 1015.38 1015.37 1015.33 1015.28 1015.21 1015.15 1015.10 1015.05 1015.00 1014.92 1014.78 1014.57 1014.24 1013.79 1013.19 1012.45 1011.59 1010.63 1009.62 1008.62 1007.67 1006.85 1006.19 1005.73 1005.47 1005.44
1010.13 1010.55 1010.97 1011.38 1011.79 1012.18 1012.57 1012.95 1013.32 1013.68 1014.01 1014.33 1014.61 1014.86 1015.06 1015.21 1015.31 1015.37 1015.40 1015.40 1015.40 1015.41 1015.43 1015.48 1015.53 1015.58 1015.61 1015.57 1015.43 1015.16 1014.74 1014.14 1013.37 1012.44 1011.37 1010.23 1009.06 1007.93 1006.90 1006.03 1005.36 1004.91 1004.70
1010.37 1010.75 1011.13 1011.51 1011.89 1012.27 1012.64 1013.02 1013.38 1013.74 1014.08 1014.40 1014.69 1014.94 1015.14 1015.29 1015.39 1015.46 1015.49 1015.52 1015.55 1015.59 1015.67 1015.77 1015.90 1016.03 1016.13 1016.17 1016.10 1015.90 1015.51 1014.94 1014.16 1013.20 1012.08 1010.84 1009.55 1008.28 1007.09 1006.04 1005.18 1004.55 1004.16
1010.78 1011.13 1011.49 1011.84 1012.20 1012.56 1012.92 1013.28 1013.65 1014.00 1014.35 1014.67 1014.95 1015.19 1015.38 1015.51 1015.60 1015.64 1015.66 1015.67 1015.69 1015.74 1015.82 1015.94 1016.09 1016.25 1016.40 1016.48 1016.47 1016.31 1015.98 1015.44 1014.69 1013.74 1012.61 1011.34 1010.00 1008.64 1007.35 1006.17 1005.16 1004.36 1003.81
1011.33 1011.66 1011.99 1012.32 1012.66 1013.00 1013.35 1013.70 1014.06 1014.42 1014.76 1015.08 1015.35 1015.58 1015.75 1015.86 1015.91 1015.92 1015.90 1015.86 1015.84 1015.84 1015.89 1015.98 1016.10 1016.25 1016.40 1016.49 1016.50 1016.38 1016.08 1015.60 1014.90 1013.99 1012.90 1011.66 1010.32 1008.94 1007.60 1006.34 1005.24 1004.32 1003.62
1011.96 1012.26 1012.57 1012.87 1013.18 1013.51 1013.84 1014.19 1014.55 1014.90 1015.25 1015.56 1015.84 1016.05 1016.20 1016.29 1016.31 1016.27 1016.19 1016.10 1016.00 1015.94 1015.91 1015.92 1015.99 1016.08 1016.18 1016.25 1016.25 1016.14 1015.87 1015.43 1014.80 1013.96 1012.94 1011.76 1010.48 1009.14 1007.80 1006.52 1005.36 1004.35 1003.54
1012.55 1012.82 1013.10 1013.38 1013.67 1013.97 1014.30 1014.64 1015.00 1015.36 1015.71 1016.04 1016.32 1016.54 1016.68 1016.75 1016.75 1016.67 1016.55 1016.39 1016.22 1016.07 1015.95 1015.87 1015.84 1015.84 1015.86 1015.87 1015.83 1015.70 1015.45 1015.04 1014.46 1013.70 1012.77 1011.69 1010.49 1009.22 1007.93 1006.67 1005.49 1004.43 1003.54
Thickness
5733 5731 5729 5726 5724 5721 5719 5717 5716 5714 5711 5708 5705 5702 5700 5697 5696 5694 5693 5693 5690 5688 5687 5685 5683 5682 5680 5679 5678 5676 5675 5672 5667 5671 5675 5677 5677 5676 5676 5677 5677 5676 5676
5728 5726 5723 5721 5718 5715 5713 5712 5711 5708 5706 5703 5700 5697 5695 5693 5691 5689 5687 5687 5685 5683 5682 5680 5679 5677 5675 5674 5671 5670 5668 5667 5663 5662 5666 5668 5669 5670 5670 5670 5671 5672 5672
5723 5720 5717 5715 5712 5709 5708 5707 5705 5703 5701 5698 5696 5692 5691 5689 5687 5686 5684 5682 5680 5679 5677 5675 5673 5671 5668 5667 5665 5664 5662 5662 5660 5658 5659 5661 5662 5663 5663 5663 5665 5665 5666
5718 5715 5711 5708 5706 5704 5703 5701 5700 5698 5695 5693 5691 5689 5687 5686 5683 5682 5679 5677 5676 5675 5674 5671 5669 5667 5663 5661 5660 5657 5656 5654 5653 5653 5653 5653 5654 5656 5655 5654 5654 5657 5658
5712 5708 5706 5704 5702 5700 5697 5696 5694 5691 5690 5687 5685 5684 5683 5681 5678 5676 5674 5673 5671 5670 5668 5666 5665 5662 5659 5656 5655 5652 5650 5647 5646 5646 5646 5646 5646 5646 5646 5647 5647 5648 5650
5704 5701 5700 5698 5696 5694 5691 5689 5687 5685 5683 5681 5679 5679 5677 5676 5673 5671 5668 5667 5666 5664 5662 5661 5659 5656 5654 5651 5649 5647 5645 5642 5640 5639 5639 5639 5640 5640 5641 5641 5640 5639 5639
5698 5696 5694 5692 5690 5688 5687 5684 5681 5678 5676 5675 5674 5673 5671 5669 5667 5665 5663 5661 5661 5659 5657 5655 5654 5652 5649 5647 5645 5642 5640 5638 5636 5635 5634 5634 5634 5634 5633 5632 5632 5631 5632
5692 5690 5688 5686 5684 5682 5680 5678 5675 5673 5670 5669 5668 5667 5666 5664 5661 5659 5657 5656 5656 5654 5652 5650 5648 5645 5644 5641 5640 5638 5635 5634 5632 5631 5631 5629 5629 5629 5628 5627 5626 5625 5627
5686 5684 5683 5681 5678 5675 5673 5671 5669 5667 5665 5664 5663 5662 5660 5658 5655 5653 5650 5650 5650 5649 5648 5646 5644 5641 5638 5636 5634 5631 5629 5628 5629 5628 5626 5625 5624 5623 5621 5619 5618 5617 5617
5680 5679 5678 5676 5673 5670 5668 5666 5664 5662 5660 5659 5659 5658 5656 5654 5650 5647 5644 5645 5644 5643 5642 5640 5638 5635 5632 5629 5627 5625 5622 5622 5621 5621 5619 5618 5618 5617 5615 5612 5612 5611 5611
5675 5674 5673 5671 5668 5666 5664 5661 5659 5657 5655 5654 5653 5652 5651 5648 5644 5641 5639 5638 5637 5636 5635 5634 5633 5629 5626 5623 5621 5619 5618 5615 5614 5613 5612 5612 5612 5612 5611 5609 5609 5607 5606
5669 5667 5666 5664 5662 5661 5657 5655 5653 5650 5648 5647 5646 5645 5644 5642 5639 5636 5633 5630 5629 5628 5628 5629 5627 5623 5621 5618 5616 5615 5612 5609 5608 5607 5606 5606 5607 5607 5608 5607 5606 5605 5604
5660 5658 5657 5656 5655 5654 5651 5648 5646 5644 5642 5641 5639 5638 5637 5635 5632 5629 5626 5624 5622 5620 5622 5621 5618 5616 5613 5612 5611 5608 5605 5603 5602 5601 5601 5602 5603 5603 5603 5602 5602 5600 5600
5651 5650 5649 5648 5647 5646 5644 5643 5640 5638 5636 5634 5632 5631 5629 5628 5625 5622 5619 5617 5615 5614 5613 5613 5611 5609 5607 5606 5605 5603 5601 5600 5598 5597 5597 5597 5598 5597 5596 5596 5595 5594 5592
5643 5642 5641 5641 5641 5639 5637 5635 5634 5632 5630 5627 5626 5623 5621 5619 5617 5613 5611 5610 5608 5606 5604 5605 5605 5605 5603 5602 5601 5600 5598 5596 5594 5593 5592 5591 5590 5590 5590 5589 5588 5587 5585
5635 5634 5634 5634 5633 5632 5630 5628 5626 5625 5622 5620 5618 5615 5614 5612 5609 5607 5605 5603 5601 5598 5596 5599 5599 5600 5599 5598 5597 5596 5594 5593 5590 5588 5586 5585 5583 5583 5583 5583 5582 5580 5579
5628 5628 5628 5628 5627 5625 5623 5621 5618 5616 5614 5612 5611 5608 5606 5603 5602 5600 5598 5596 5594 5592 5592 5594 5594 5594 5594 5594 5593 5592 5590 5589 5586 5584 5582 5580 5578 5577 5577 5576 5575 5574 5574
5622 5621 5621 5621 5620 5619 5618 5616 5615 5612 5609 5608 5606 5602 5600 5598 5596 5594 5591 5588 5590 5590 5590 5590 5590 5589 5589 5588 5588 5587 5585 5584 5581 5579 5577 5575 5574 5572 5571 5570 5569 5568 5567
5614 5614 5614 5614 5614 5613 5612 5611 5610 5608 5607 5604 5602 5599 5595 5593 5590 5587 5585 5585 5587 5588 5588 5587 5586 5585 5585 5583 5582 5580 5578 5577 5576 5574 5572 5570 5569 5567 5566 5565 5565 5563 5562
5608 5606 5606 5607 5607 5607 5606 5605 5604 5602 5601 5599 5597 5596 5593 5591 5589 5586 5583 5583 5583 5583 5583 5583 5582 5581 5580 5578 5576 5574 5572 5571 5569 5568 5566 5565 5564 5563 5561 5561 5560 5559 5559
5601 5601 5599 5600 5600 5600 5600 5599 5598 5597 5596 5594 5593 5592 5589 5588 5588 5587 5584 5582 5580 5579 5578 5577 5576 5575 5574 5572 5570 5568 5566 5564 5562 5560 5559 5558 5558 5558 5557 5557 5556 5556 5555
5594 5594 5594 5594 5594 5593 5593 5593 5593 5591 5590 5588 5587 5587 5584 5584 5584 5583 5581 5579 5577 5576 5574 5572 5570 5569 5567 5564 5562 5561 5559 5557 5555 5553 5552 5551 5551 5552 5552 5552 5552 5552 5551
5588 5588 5588 5588 5588 5587 5587 5588 5587 5585 5584 5582 5582 5581 5579 5578 5578 5576 5574 5573 5572 5571 5569 5566 5564 5562 5560 5557 5555 5552 5551 5549 5548 5547 5547 5546 5545 5546 5547 5547 5548 5547 5546
5583 5583 5583 5583 5582 5582 5581 5581 5580 5579 5578 5577 5575 5574 5573 5571 5570 5569 5568 5567 5566 5565 5562 5560 5557 5555 5552 5549 5547 5544 5542 5540 5540 5540 5540 5540 5540 5540 5541 5542 5543 5542 5542
5577 5577 5577 5577 5576 5575 5574 5573 5572 5570 5570 5570 5569 5568 5566 5565 5563 5561 5560 5559 5558 5557 5555 5553 5550 5547 5545 5542 5539 5537 5534 5533 5532 5532 5533 5534 5534 5535 5536 5537 5537 5538 5537
5570 5571 5570 5570 5569 5568 5566 5565 5563 5562 5561 5560 5560 5559 5558 5556 5554 5553 5551 5550 5549 5548 5547 5545 5543 5540 5538 5536 5533 5530 5527 5526 5526 5525 5526 5527 5528 5530 5531 5531 5532 5532 5532